[[{"header":{"parameterUnit":"m.s-1","parameterCategory":1,"la1":30.2991,"la2":30.254,"lo1":-89.0895,"lo2":-89.0444,"dy":0.0017,"dx":0.0017,"nx":28,"ny":28,"refTime":"2025-03-25T09:00:00:Z","depth":0,"parameterNumber":2,"parameterNumberName":"U-component_of_WINDS"},"data":[0,0,0,0,0,0,0,0,0,0,0,0,0,0,0,0,0,0,0,0,0,0,0,0,0,0,0,0,0,0,0,0,0,0,0,0,0,0,0,0,0,0,0,0,0,0,0,0,0,0,0,0,0,0,0,0,0,0,-0.997,-0.997,0,-1.0042,-1.0043,-1.0044,-1.004,-1.0039,-1.0038,-1.0037,-1.011,-1.0113,-1.0116,0,0,0,0,0,0,0,0,0,0,0,0,0,-0.9826,-0.9829,-0.997,-0.997,-0.9971,-1.0042,-1.0043,-1.0044,-1.0041,-1.0039,-1.0038,-1.0037,-1.0109,-1.0113,-1.0116,0,0,0,0,0,0,0,0,0,0,0,0,0,-0.9892,-0.983,-0.9969,-0.9978,-0.998,-1.0042,-1.0043,-1.0044,-1.0041,-1.0039,-1.0038,-1.0036,-1.0108,-1.0112,-1.0117,-1.0174,0,0,-1.013,-1.0132,0,0,0,0,0,0,0,0,-0.9889,-0.9898,-0.9976,-0.9978,-0.998,-1.0031,-1.0019,-1.0088,-1.0041,-1.0018,-1.0037,-1.0036,-1.0085,-1.0091,-1.0108,-1.0178,-1.0181,-1.013,-1.0133,-1.0135,-1.0136,0,0,0,0,0,0,0,-0.9884,-0.9895,-0.9998,-0.9977,-0.9979,-0.9978,-0.9986,-1.0032,-1.0059,-1.002,-1.002,-1.0028,-1.0086,-1.0104,-1.011,-1.0182,-1.013,-1.0134,-1.0137,-1.0138,-1.0301,-1.0303,0,0,0,0,0,0,-0.9878,-0.9891,-0.9996,-1.0,-0.9929,-0.9982,-0.999,-1.0016,-1.0058,-1.0064,-1.0029,-1.0028,-1.0097,-1.0105,-1.0112,-1.0182,-1.0135,-1.0139,-1.0141,-1.0299,-1.0301,-1.0303,0,0,0,0,0,0,-0.9875,-0.9887,-0.9993,-0.9946,-0.9959,-0.9986,-1.0014,-1.0018,-1.0036,-1.0066,-1.0071,-1.0043,-1.0096,-1.0106,-1.0159,-1.0184,-1.0141,-1.0145,-1.0297,-1.03,-1.0302,-1.0322,0,0,0,0,0,0,-0.9871,-0.9886,-0.9909,-0.9946,-0.9962,-1.0039,-1.0016,-1.0021,-1.0044,-1.0043,-1.008,-1.0085,-1.0096,-1.0152,-1.0163,-1.0189,-1.0148,-1.0295,-1.0299,-1.0302,-1.0319,-1.0325,-1.033,0,0,0,0,0,-0.9866,-0.9911,-0.991,-0.9923,-0.9991,-1.004,-1.0049,-1.0061,-1.0046,-1.0069,-1.0088,-1.0084,-1.018,-1.0158,-1.017,-1.0198,-1.0294,-1.0298,-1.0301,-1.0317,-1.0324,-1.0329,0,0,0,0,0,0,-0.9876,-0.9916,-0.9915,-0.9975,-1.0004,-1.004,-1.0069,-1.0068,-1.0102,-1.01,-1.0112,-1.0121,-1.0174,-1.0191,-1.0166,-1.0255,-1.0235,-1.0241,-1.0242,-1.0249,-1.0254,-1.0249,-1.0152,0,0,0,0,0,-0.9885,-0.9923,-0.9956,-1.0005,-1.002,-1.0042,-1.0064,-1.0071,-1.0102,-1.0114,-1.0137,-1.0166,-1.0203,-1.0227,-1.0262,-1.0321,-1.0329,-1.0347,-1.0352,-1.0356,-1.0361,-1.0393,-1.0401,-1.0316,-1.0316,-1.0316,0,0,-0.9905,-0.9931,-0.9954,-1.0008,-1.0032,-1.007,-1.0052,-1.0094,-1.0122,-1.012,-1.0171,-1.0189,-1.0222,-1.0278,-1.0304,-1.0294,-1.0386,-1.0361,-1.0364,-1.0367,-1.0398,-1.0406,-1.0413,-1.0319,-1.0318,-1.0318,0,0,-0.9959,-0.9984,-1.0027,-1.0051,-1.0087,-1.0101,-1.0112,-1.0147,-1.0159,-1.0211,-1.021,-1.0243,-1.0306,-1.033,-1.035,-1.0413,-1.0411,-1.0425,-1.0452,-1.0483,-1.0489,-1.0495,-1.0517,-1.0525,-1.043,-1.043,-1.043,0,-0.9979,-1.0037,-1.0049,-1.0091,-1.0114,-1.0114,-1.0158,-1.018,-1.0226,-1.0241,-1.023,-1.0309,-1.0332,-1.0393,-1.0408,-1.0425,-1.0436,-1.042,-1.0487,-1.0494,-1.0499,-1.052,-1.0528,-1.0431,-1.0431,-1.0431,-1.0431,0,-1.0059,-1.0099,-1.0129,-1.0173,-1.02,-1.0242,-1.026,-1.0285,-1.029,-1.0305,-1.0356,-1.0384,-1.0424,-1.0439,-1.0444,-1.0501,-1.0493,-1.0485,-1.0464,-1.0509,-1.0528,-1.0536,-1.0433,-1.0433,-1.0432,-1.0432,0,0,-1.0122,-1.0172,-1.0183,-1.0203,-1.0243,-1.0274,-1.0315,-1.0355,-1.0376,-1.0408,-1.0442,-1.0496,-1.0488,-1.0511,-1.0518,-1.0544,-1.0591,-1.0532,-1.0533,-1.0542,-1.0654,-1.066,-1.0669,-1.059,-1.0591,-1.0593,-1.0651,0,-1.018,-1.0255,-1.0267,-1.0332,-1.0369,-1.037,-1.0406,-1.0434,-1.0449,-1.0481,-1.0497,-1.0535,-1.0522,-1.0535,-1.0562,-1.058,-1.0614,-1.0576,-1.0621,-1.0623,-1.0612,-1.068,-1.0686,-1.0741,-1.0659,-1.0661,-1.0661,0,-1.0259,-1.0292,-1.0361,-1.0395,-1.0411,-1.0443,-1.0481,-1.0512,-1.0543,-1.0552,-1.0577,-1.0581,-1.0623,-1.0601,-1.0659,-1.0633,-1.0652,-1.0663,-1.0666,-1.067,-1.0644,-1.0685,-1.0758,-1.0766,-1.0674,-1.0673,-1.0672,0,-1.0297,-1.036,-1.0409,-1.0426,-1.0467,-1.0489,-1.0507,-1.0537,-1.056,-1.0592,-1.0607,-1.0644,-1.0664,-1.0691,-1.0704,-1.0687,-1.0761,-1.074,-1.0768,-1.0768,-1.0784,-1.0782,-1.086,-1.0797,-1.0797,-1.0797,-1.0797,0,-1.0361,-1.0403,-1.0426,-1.0457,-1.0503,-1.0516,-1.0562,-1.0579,-1.0605,-1.0638,-1.0641,-1.0671,-1.0687,-1.0719,-1.073,-1.0775,-1.0785,-1.0792,-1.0794,-1.0792,-1.0791,-1.0804,-1.08,-1.0799,-1.0798,-1.0798,-1.0798,0,-1.0412,-1.0429,-1.0483,-1.0517,-1.0527,-1.056,-1.0588,-1.0617,-1.0632,-1.0673,-1.0684,-1.0706,-1.0745,-1.0761,-1.0808,-1.0814,-1.0866,-1.0866,-1.0856,-1.0857,-1.0884,-1.0881,-1.0972,-1.0985,-1.0914,-1.0915,-1.0916,0,-1.0451,-1.0483,-1.0521,-1.0543,-1.0562,-1.0598,-1.0622,-1.0635,-1.066,-1.0697,-1.0721,-1.076,-1.0791,-1.0852,-1.0872,-1.0908,-1.0908,-1.0937,-1.0913,-1.0909,-1.0907,-1.0905,-1.0908,-1.0942,-1.0942,-1.0943,-1.0943,0,-1.0518,-1.0525,-1.0559,-1.0596,-1.0625,-1.0654,-1.0683,-1.0701,-1.0719,-1.0746,-1.0786,-1.081,-1.0858,-1.0896,-1.0933,-1.095,-1.0949,-1.0951,-1.0959,-1.0957,-1.0949,-1.0953,-1.0868,-1.0949,-1.0948,-1.0948,-1.0947,-1.0947,-1.0564,-1.0592,-1.0623,-1.0661,-1.0684,-1.0711,-1.074,-1.0758,-1.0791,-1.0832,-1.0838,-1.088,-1.0909,-1.0958,-1.0977,-1.1009,-1.1001,-1.1014,-1.1017,-1.1019,-1.1021,-1.0945,-1.1016,-1.1016,-1.1016,-1.1015,-1.1015,0,-1.063,-1.065,-1.0685,-1.0725,-1.0755,-1.0752,-1.0784,-1.0809,-1.0846,-1.0873,-1.0904,-1.0949,-1.0986,-1.1008,-1.1045,-1.1066,-1.1067,-1.1075,-1.1073,-1.1077,-1.1026,-1.1015,-1.1074,-1.1074,-1.1074,-1.1074,-1.1074,-1.1074,-1.0668,-1.0716,-1.0727,-1.0786,-1.0805,-1.0847,-1.0865,-1.0889,-1.0911,-1.0961,-1.0992,-1.1007,-1.1032,-1.107,-1.1103,-1.1109,-1.1121,-1.113,-1.1135,-1.1087,-1.1081,-1.1075,-1.1064,-1.1133,-1.1133,-1.1184,-1.1184,-1.1185]},{"header":{"parameterUnit":"m.s-1","parameterCategory":1,"la1":30.2991,"la2":30.254,"lo1":-89.0895,"lo2":-89.0444,"dy":0.0017,"dx":0.0017,"nx":28,"ny":28,"refTime":"2025-03-25T09:00:00:Z","depth":0,"parameterNumber":3,"parameterNumberName":"V-component_of_WINDS"},"data":[0,0,0,0,0,0,0,0,0,0,0,0,0,0,0,0,0,0,0,0,0,0,0,0,0,0,0,0,0,0,0,0,0,0,0,0,0,0,0,0,0,0,0,0,0,0,0,0,0,0,0,0,0,0,0,0,0,0,-1.5444,-1.5445,0,-1.5524,-1.5525,-1.5525,-1.5535,-1.5534,-1.5533,-1.5532,-1.5615,-1.5618,-1.5621,0,0,0,0,0,0,0,0,0,0,0,0,0,-1.5302,-1.5304,-1.5444,-1.5445,-1.5446,-1.5523,-1.5525,-1.5526,-1.5535,-1.5534,-1.5533,-1.5532,-1.5614,-1.5618,-1.5621,0,0,0,0,0,0,0,0,0,0,0,0,0,-1.5371,-1.5305,-1.5444,-1.546,-1.5462,-1.5523,-1.5525,-1.5526,-1.5535,-1.5534,-1.5533,-1.5532,-1.5613,-1.5617,-1.5622,-1.5673,0,0,-1.5635,-1.5637,0,0,0,0,0,0,0,0,-1.5367,-1.5376,-1.5457,-1.5459,-1.5462,-1.5518,-1.5505,-1.5575,-1.5535,-1.5507,-1.5532,-1.5531,-1.5584,-1.5591,-1.5608,-1.5677,-1.568,-1.5636,-1.5638,-1.564,-1.5641,0,0,0,0,0,0,0,-1.5362,-1.5373,-1.5476,-1.5458,-1.5461,-1.5464,-1.5472,-1.5518,-1.5551,-1.551,-1.5511,-1.552,-1.5585,-1.5604,-1.561,-1.5681,-1.5635,-1.5639,-1.5642,-1.5644,-1.5796,-1.5797,0,0,0,0,0,0,-1.5354,-1.5369,-1.5473,-1.5478,-1.541,-1.5467,-1.5477,-1.5501,-1.5551,-1.5557,-1.5521,-1.552,-1.5597,-1.5605,-1.5613,-1.5676,-1.564,-1.5644,-1.5647,-1.5794,-1.5796,-1.5798,0,0,0,0,0,0,-1.5351,-1.5363,-1.547,-1.5424,-1.5437,-1.5471,-1.5498,-1.5503,-1.5522,-1.5559,-1.5565,-1.5534,-1.5596,-1.5607,-1.5658,-1.5679,-1.5646,-1.565,-1.5793,-1.5795,-1.5797,-1.5803,0,0,0,0,0,0,-1.5347,-1.5362,-1.5382,-1.5424,-1.544,-1.5513,-1.55,-1.5506,-1.553,-1.5529,-1.5573,-1.5579,-1.5596,-1.5651,-1.5662,-1.5685,-1.5654,-1.5791,-1.5794,-1.5796,-1.5801,-1.5805,-1.5808,0,0,0,0,0,-1.5342,-1.538,-1.5382,-1.5395,-1.5465,-1.5514,-1.5523,-1.5541,-1.5531,-1.5551,-1.5575,-1.5578,-1.5675,-1.5656,-1.5669,-1.5693,-1.579,-1.5793,-1.5796,-1.5799,-1.5804,-1.5808,0,0,0,0,0,0,-1.534,-1.5386,-1.5389,-1.5442,-1.5474,-1.5515,-1.5541,-1.5546,-1.5582,-1.558,-1.5602,-1.5612,-1.5661,-1.5682,-1.5661,-1.5745,-1.5731,-1.5737,-1.573,-1.5735,-1.5738,-1.5732,-1.5657,0,0,0,0,0,-1.5346,-1.5382,-1.542,-1.5464,-1.5479,-1.5507,-1.553,-1.5541,-1.5575,-1.5589,-1.5616,-1.5649,-1.5687,-1.5712,-1.5749,-1.5804,-1.5814,-1.5827,-1.583,-1.5833,-1.5838,-1.5868,-1.5875,-1.5808,-1.5808,-1.5808,0,0,-1.5358,-1.5388,-1.5409,-1.5464,-1.549,-1.5527,-1.5519,-1.5558,-1.5586,-1.5595,-1.5644,-1.5666,-1.5704,-1.5757,-1.5782,-1.5776,-1.5859,-1.5837,-1.5839,-1.5843,-1.5872,-1.5879,-1.5884,-1.581,-1.581,-1.5809,0,0,-1.54,-1.5426,-1.5465,-1.5491,-1.553,-1.5549,-1.5558,-1.5599,-1.5613,-1.5663,-1.567,-1.5704,-1.5769,-1.5796,-1.5818,-1.587,-1.5874,-1.5882,-1.5901,-1.5931,-1.5936,-1.5941,-1.5959,-1.5966,-1.5886,-1.5886,-1.5886,0,-1.5411,-1.5466,-1.5484,-1.5524,-1.5548,-1.5557,-1.5597,-1.5621,-1.5671,-1.5687,-1.568,-1.5762,-1.5788,-1.5848,-1.586,-1.5878,-1.589,-1.5877,-1.5934,-1.5939,-1.5943,-1.5961,-1.5968,-1.5887,-1.5887,-1.5887,-1.5887,0,-1.5477,-1.5516,-1.5543,-1.559,-1.5617,-1.5656,-1.5681,-1.5706,-1.5715,-1.5734,-1.5785,-1.5817,-1.5861,-1.5876,-1.5886,-1.5937,-1.5932,-1.5929,-1.5916,-1.595,-1.5967,-1.5974,-1.5888,-1.5888,-1.5888,-1.5887,0,0,-1.552,-1.5577,-1.5586,-1.5608,-1.5652,-1.5682,-1.5722,-1.5764,-1.5786,-1.5819,-1.5854,-1.5908,-1.5906,-1.5931,-1.5944,-1.5969,-1.6008,-1.5963,-1.5964,-1.5971,-1.6067,-1.607,-1.6077,-1.6011,-1.6013,-1.6014,-1.6064,0,-1.5567,-1.5638,-1.5655,-1.5716,-1.5752,-1.5761,-1.5796,-1.5827,-1.5846,-1.588,-1.5901,-1.594,-1.5933,-1.5948,-1.5974,-1.5998,-1.6028,-1.5995,-1.6044,-1.6045,-1.6034,-1.6086,-1.6089,-1.6135,-1.6071,-1.6072,-1.6073,0,-1.5631,-1.5666,-1.573,-1.5769,-1.5785,-1.5816,-1.5856,-1.5888,-1.5923,-1.5935,-1.5964,-1.5973,-1.6016,-1.6,-1.6059,-1.6036,-1.6057,-1.6072,-1.6074,-1.6079,-1.6061,-1.6093,-1.615,-1.6157,-1.6084,-1.6083,-1.6082,0,-1.5656,-1.5719,-1.5765,-1.5783,-1.583,-1.5852,-1.5872,-1.5907,-1.5931,-1.5966,-1.5982,-1.6022,-1.6044,-1.6075,-1.6096,-1.6082,-1.6153,-1.6139,-1.6164,-1.6164,-1.6179,-1.6178,-1.624,-1.6192,-1.6192,-1.6192,-1.6192,0,-1.5706,-1.5745,-1.5777,-1.5806,-1.585,-1.587,-1.5913,-1.5934,-1.5964,-1.5997,-1.6008,-1.6039,-1.6064,-1.6098,-1.6115,-1.6161,-1.6171,-1.6182,-1.6186,-1.6181,-1.618,-1.6196,-1.6193,-1.6194,-1.6193,-1.6193,-1.6193,0,-1.5742,-1.5765,-1.5816,-1.5856,-1.5867,-1.5898,-1.5932,-1.5961,-1.598,-1.6022,-1.6033,-1.6063,-1.6104,-1.6128,-1.618,-1.6191,-1.6242,-1.6245,-1.623,-1.6232,-1.6256,-1.6254,-1.6331,-1.6342,-1.6286,-1.6287,-1.6287,0,-1.5772,-1.5803,-1.5846,-1.5868,-1.5889,-1.5926,-1.595,-1.5971,-1.5997,-1.6039,-1.6063,-1.6104,-1.6139,-1.6204,-1.6231,-1.6271,-1.6275,-1.6299,-1.6281,-1.6275,-1.6275,-1.6273,-1.6276,-1.6302,-1.6302,-1.6303,-1.6303,0,-1.5825,-1.5834,-1.5869,-1.5909,-1.5938,-1.597,-1.6001,-1.6019,-1.6046,-1.6074,-1.6116,-1.6142,-1.6195,-1.6236,-1.6278,-1.63,-1.6306,-1.6309,-1.6317,-1.6312,-1.6303,-1.6308,-1.6239,-1.6307,-1.6306,-1.6306,-1.6306,-1.6306,-1.5859,-1.5886,-1.5921,-1.5959,-1.5985,-1.6015,-1.6043,-1.6066,-1.6101,-1.6145,-1.6156,-1.62,-1.6235,-1.6292,-1.6314,-1.6349,-1.6345,-1.6357,-1.636,-1.6362,-1.6363,-1.6297,-1.6357,-1.6357,-1.6357,-1.6357,-1.6357,0,-1.5912,-1.5934,-1.597,-1.6013,-1.6044,-1.6046,-1.6082,-1.6107,-1.6146,-1.6178,-1.6211,-1.6259,-1.6299,-1.633,-1.6371,-1.6393,-1.6397,-1.6403,-1.6402,-1.6407,-1.6365,-1.6354,-1.6399,-1.6399,-1.6399,-1.6399,-1.6399,-1.6399,-1.5943,-1.5989,-1.6003,-1.6062,-1.6084,-1.6127,-1.6147,-1.6175,-1.62,-1.6253,-1.6286,-1.6306,-1.6337,-1.638,-1.6417,-1.6425,-1.644,-1.6446,-1.6454,-1.6414,-1.641,-1.6405,-1.6395,-1.6449,-1.6449,-1.6493,-1.6494,-1.6494]}]]